[Date Prev][Date Next][Thread Prev][Thread Next] - [Date Index][Thread Index][Author Index]
ISS keps 02/13/02
- Subject: [sarex] ISS keps 02/13/02
- From: "Scott Avery" <wa6lie@xxxxxxx>
- Date: Wed, 13 Feb 2002 17:23:03 -0800
ISS
1 25544U 98067A 02044.91608796 .00065302 00000-0 75408-3 0 697
2 25544 51.6402 312.5929 0005416 70.7581 306.6506 15.61269020184804
_________________________________________________________________
Send and receive Hotmail on your mobile device: http://mobile.msn.com
----
Via the sarex mailing list at AMSAT.ORG courtesy of AMSAT-NA.
To unsubscribe, send "unsubscribe sarex" to Majordomo@amsat.org
AMSAT Home